SL-16 DEB, 22342

Orbit data source: Space-Track

SL-16 DEB, 22342 is space debris in LEO originally from a launch on Fri, 25 Dec 1992 UTC launched from the Tyuratam Missile And Space Complex (TTMTR). Debris objects in space refer to the collection of defunct objects orbiting the Earth. Examples of debris include non-operational satellites, rocket bodies, and fragments generated from explosions, collisions, or faulty payload assembly.

Loading next visibility...
Identifier
22342, 1992-093AF
Orbit
LEO
Last TLE update
7 hours ago
Origin
Manufacturer
Unknown
Mission
Spacecraft
Bus & Motor
Unknown
Mass
Unknown
Launch date (UTC)
1992-12-25 (33 years ago)
Launch vehicle
Unknown
Launch site
Tyuratam Missile And Space Complex (TTMTR)
Object type
Payload
Rocket body
Debris
Shape & HBR
Unknown
Radar Cross Section
Small (<0.1 m²)

Expand to show TLE details & history

TLE from 7 hours ago
0 SL-16 DEB
1 22342U 92093AF  25186.94990808  .00000125  00000-0  12196-3 0  9995
2 22342  70.6999  17.4864 0119057 220.2749 259.0526 13.94488854649770
Epoch: 2025-07-05T22:47Z
TLE epoch observation values (Epoch: 2025-07-05T22:47:52.058Z)
Latitude
56.55884°
Longitude
-100.49815°
Altitude
939.313 km
Speed
7.379 km/s
True Right ascension
11h 02m 35s
True Declination
56° 24' 16"
Sunlit
Object was in daylight at epoch
Visualization orbit readout
Latitude
22.07323°
Longitude
-77.38891°
Altitude
875.246 km
Speed
7.437 km/s
Apparent Right ascension
09h 55m 42s
Apparent Declination
-10° 16' 54"
Sunlit
Object is in daylight
Visualization observer readout
Local Sidereal Time
17:49:28
Azimuth
280.722° WNW
Elevation
-28.293°
Doppler factor
1
Orbital elements
Apogee altitude
997.697 km
Perigee altitude
824.135 km
Semi-major axis
7,289.053 km
Eccentricity
0.01191
Inclination
70.6999°
RAAN
17.4864°
Arg. of periapsis
220.2749°
True anomaly
Unknown
Mean anomaly
259.0526°
Eccentric anomaly
Unknown
Mean motion
3.48768 °/min
Orbital period
103.22 mins
BSTAR
0.00012196
Loading maneuver chart data...
Loading SW <> Apogee altitude chart data...
Loading historical data...
Loading historical data...
Loading historical data...
Loading historical data...
Loading historical data...
Loading historical data...
Loading historical data...

SL-16 DEB Visibility forecast

Observer location: undefined°, undefined°

Span
Click to sort rows by Start time (UTC) header in descending order
Start Az.
Max El. time (UTC)
Max El. Az.
Max El.
End time (UTC)
End Az.
12 mins2025-07-06 13:49:04.250Z189.845° SSW2025-07-06 13:55:04.250Z116.671° SE42.537°2025-07-06 14:01:04.250Z29.695° NE
8 mins2025-07-06 15:38:04.250Z269.35° W2025-07-06 15:41:04.250Z303.683° NW21.414°2025-07-06 15:46:04.250Z357.376° N
9 mins2025-07-06 22:54:04.250Z0.774° NNE2025-07-06 22:58:04.250Z57.866° ENE29.821°2025-07-06 23:03:04.250Z121.108° SE
8 mins2025-07-07 00:40:04.250Z308.998° NW2025-07-07 00:44:04.250Z246.662° WSW29.453°2025-07-07 00:48:04.250Z196.282° SSW
|